| time (UTC) | temp C | wind direction | speed KPH | gust KPH | rain 1hr cm | rain 24hr cm | rain mn cm | humidity % | barometer mb |
| 20260508105019 | 11 | 270 | 3.2 | 12.9 | 0.00 | 0.00 | 0.00 | 65 | 1021.7 |
| 20260508104017 | 11 | 113 | 4.8 | 12.9 | 0.00 | 0.00 | 0.00 | 65 | 1021.6 |
| 20260508103018 | 11 | 113 | 3.2 | 11.3 | 0.00 | 0.00 | 0.00 | 66 | 1021.6 |
| 20260508102017 | 11 | 113 | 1.6 | 9.7 | 0.00 | 0.00 | 0.00 | 67 | 1021.5 |
| 20260508101017 | 11 | 248 | 3.2 | 14.5 | 0.00 | 0.00 | 0.00 | 68 | 1021.4 |
| 20260508100017 | 11 | 90 | 1.6 | 8.0 | 0.00 | 0.00 | 0.00 | 69 | 1021.3 |
| 20260508095017 | 11 | 113 | 3.2 | 14.5 | 0.00 | 0.00 | 0.00 | 69 | 1021.3 |
| 20260508094018 | 11 | 0.0 | 8.0 | 0.00 | 0.00 | 0.00 | 71 | 1021.1 | |
| 20260508093038 | 11 | 248 | 1.6 | 8.0 | 0.00 | 0.00 | 0.00 | 71 | 1020.9 |
| 20260508092140 | 11 | 0.0 | 4.8 | 0.00 | 0.00 | 0.00 | 74 | 1020.9 | |
| 20260508091017 | 10 | 248 | 1.6 | 9.7 | 0.00 | 0.00 | 0.00 | 74 | 1021.0 |
| 20260508090017 | 11 | 248 | 3.2 | 16.1 | 0.00 | 0.00 | 0.00 | 73 | 1020.9 |
| 20260508085018 | 11 | 248 | 3.2 | 9.7 | 0.00 | 0.00 | 0.00 | 72 | 1020.8 |
| 20260508084017 | 11 | 248 | 3.2 | 11.3 | 0.00 | 0.00 | 0.00 | 72 | 1020.6 |
| 20260508083018 | 11 | 113 | 1.6 | 11.3 | 0.00 | 0.00 | 0.00 | 72 | 1020.7 |
| 20260508082017 | 11 | 90 | 3.2 | 9.7 | 0.00 | 0.00 | 0.00 | 72 | 1020.6 |
| 20260508081018 | 11 | 248 | 1.6 | 11.3 | 0.00 | 0.00 | 0.00 | 74 | 1020.6 |
| 20260508080017 | 11 | 90 | 1.6 | 8.0 | 0.00 | 0.00 | 0.00 | 76 | 1020.4 |
| 20260508075017 | 10 | 248 | 1.6 | 11.3 | 0.00 | 0.00 | 0.00 | 76 | 1020.3 |
| 20260508074017 | 10 | 90 | 3.2 | 8.0 | 0.00 | 0.00 | 0.00 | 78 | 1020.2 |
| 20260508073018 | 10 | 90 | 3.2 | 12.9 | 0.00 | 0.00 | 0.00 | 78 | 1020.0 |
| 20260508072019 | 10 | 90 | 3.2 | 9.7 | 0.00 | 0.00 | 0.00 | 78 | 1019.9 |
| 20260508071018 | 10 | 90 | 1.6 | 4.8 | 0.00 | 0.00 | 0.00 | 79 | 1019.7 |
| 20260508070017 | 10 | 113 | 1.6 | 8.0 | 0.00 | 0.00 | 0.00 | 80 | 1019.5 |
| 20260508065040 | 10 | 90 | 1.6 | 6.4 | 0.00 | 0.00 | 0.00 | 80 | 1019.4 |
| 20260508064018 | 10 | 113 | 1.6 | 8.0 | 0.00 | 0.00 | 0.00 | 80 | 1019.4 |
| 20260508063017 | 10 | 0.0 | 6.4 | 0.00 | 0.00 | 0.00 | 81 | 1019.3 | |
| 20260508062017 | 10 | 0.0 | 3.2 | 0.00 | 0.00 | 0.00 | 81 | 1019.3 | |
| 20260508061017 | 10 | 0.0 | 6.4 | 0.00 | 0.00 | 0.00 | 82 | 1019.2 | |
| 20260508060017 | 10 | 0.0 | 6.4 | 0.00 | 0.00 | 0.00 | 82 | 1019.2 | |
| 20260508055018 | 10 | 0.0 | 3.2 | 0.00 | 0.00 | 0.00 | 83 | 1018.9 | |
| 20260508054016 | 10 | 0.0 | 1.6 | 0.00 | 0.00 | 0.00 | 83 | 1018.7 | |
| 20260508053018 | 10 | 0.0 | 1.6 | 0.00 | 0.00 | 0.00 | 83 | 1018.7 | |
| 20260508052038 | 10 | 0.0 | 1.6 | 0.00 | 0.00 | 0.00 | 83 | 1018.5 | |
| 20260508051017 | 9 | 0.0 | 3.2 | 0.00 | 0.00 | 0.00 | 83 | 1018.4 | |
| 20260508050058 | 9 | 0.0 | 3.2 | 0.00 | 0.00 | 0.00 | 83 | 1018.3 | |
| 20260508045018 | 9 | 0.0 | 3.2 | 0.00 | 0.00 | 0.00 | 82 | 1018.2 | |
| 20260508044017 | 9 | 0.0 | 3.2 | 0.00 | 0.00 | 0.00 | 82 | 1018.2 | |
| 20260508043018 | 10 | 0.0 | 1.6 | 0.00 | 0.00 | 0.00 | 81 | 1018.1 | |
| 20260508042018 | 10 | 0.0 | 3.2 | 0.00 | 0.00 | 0.00 | 81 | 1018.1 | |
| 20260508041020 | 10 | 0.0 | 3.2 | 0.00 | 0.00 | 0.00 | 81 | 1018.0 | |
| 20260508040017 | 10 | 0.0 | 4.8 | 0.00 | 0.00 | 0.00 | 81 | 1018.0 | |
| 20260508035017 | 10 | 90 | 1.6 | 6.4 | 0.00 | 0.00 | 0.00 | 81 | 1017.9 |
| 20260508034017 | 10 | 0.0 | 6.4 | 0.00 | 0.00 | 0.00 | 81 | 1017.8 | |
| 20260508033016 | 10 | 90 | 1.6 | 6.4 | 0.00 | 0.00 | 0.00 | 80 | 1017.7 |
| 20260508032016 | 10 | 90 | 1.6 | 6.4 | 0.00 | 0.00 | 0.00 | 80 | 1017.7 |
| 20260508031017 | 10 | 90 | 1.6 | 9.7 | 0.00 | 0.00 | 0.00 | 80 | 1017.7 |
| 20260508030016 | 10 | 90 | 1.6 | 9.7 | 0.00 | 0.00 | 0.00 | 80 | 1017.6 |
| 20260508025017 | 10 | 90 | 3.2 | 9.7 | 0.00 | 0.00 | 0.00 | 80 | 1017.6 |
| 20260508024038 | 10 | 90 | 1.6 | 6.4 | 0.00 | 0.00 | 0.00 | 80 | 1017.6 |
| 20260508023018 | 10 | 90 | 3.2 | 9.7 | 0.00 | 0.00 | 0.00 | 79 | 1017.7 |
| 20260508022018 | 10 | 90 | 3.2 | 9.7 | 0.00 | 0.00 | 0.00 | 79 | 1017.6 |
| 20260508021016 | 10 | 90 | 3.2 | 11.3 | 0.00 | 0.00 | 0.00 | 79 | 1017.6 |
| 20260508020016 | 10 | 90 | 3.2 | 9.7 | 0.00 | 0.00 | 0.00 | 78 | 1017.6 |
| 20260508015040 | 10 | 90 | 3.2 | 9.7 | 0.00 | 0.00 | 0.00 | 78 | 1017.6 |
| 20260508014016 | 10 | 90 | 1.6 | 9.7 | 0.00 | 0.00 | 0.00 | 78 | 1017.5 |
| 20260508013016 | 10 | 90 | 1.6 | 11.3 | 0.00 | 0.00 | 0.00 | 77 | 1017.4 |
| 20260508012016 | 10 | 90 | 1.6 | 11.3 | 0.00 | 0.00 | 0.00 | 77 | 1017.5 |
| 20260508011018 | 10 | 0.0 | 3.2 | 0.00 | 0.00 | 0.00 | 77 | 1017.4 | |
| 20260508010016 | 10 | 0.0 | 6.4 | 0.00 | 0.00 | 0.00 | 76 | 1017.4 | |
| 20260508005016 | 10 | 0.0 | 3.2 | 0.00 | 0.00 | 0.00 | 76 | 1017.5 | |
| 20260508004018 | 10 | 90 | 1.6 | 8.0 | 0.00 | 0.00 | 0.00 | 76 | 1017.6 |
| 20260508003016 | 10 | 0.0 | 3.2 | 0.00 | 0.00 | 0.00 | 76 | 1017.7 | |
| 20260508002016 | 10 | 90 | 1.6 | 9.7 | 0.00 | 0.00 | 0.00 | 76 | 1017.6 |
| 20260508001016 | 10 | 90 | 1.6 | 6.4 | 0.00 | 0.00 | 0.00 | 76 | 1017.6 |
| 20260508000016 | 10 | 90 | 1.6 | 9.7 | 0.00 | 0.00 | 0.00 | 75 | 1017.6 |
| 20260507235017 | 10 | 90 | 1.6 | 6.4 | 0.00 | 0.00 | 0.00 | 75 | 1017.6 |
| 20260507234017 | 10 | 90 | 1.6 | 12.9 | 0.00 | 0.00 | 0.00 | 75 | 1017.5 |
| 20260507233016 | 10 | 90 | 3.2 | 12.9 | 0.00 | 0.00 | 0.00 | 74 | 1017.4 |
| 20260507232039 | 10 | 90 | 4.8 | 14.5 | 0.00 | 0.00 | 0.00 | 74 | 1017.2 |
| 20260507231016 | 10 | 90 | 4.8 | 19.3 | 0.00 | 0.00 | 0.00 | 75 | 1017.1 |
| 20260507230038 | 10 | 90 | 3.2 | 12.9 | 0.00 | 0.00 | 0.00 | 75 | 1017.2 |
| 20260507225016 | 10 | 90 | 4.8 | 16.1 | 0.00 | 0.00 | 0.00 | 76 | 1017.2 |
| 20260507224017 | 10 | 90 | 3.2 | 17.7 | 0.00 | 0.00 | 0.00 | 76 | 1017.3 |
| 20260507223016 | 10 | 90 | 4.8 | 17.7 | 0.00 | 0.00 | 0.00 | 76 | 1017.3 |
| 20260507222016 | 10 | 90 | 3.2 | 14.5 | 0.00 | 0.00 | 0.00 | 76 | 1017.3 |
| 20260507221036 | 10 | 90 | 4.8 | 17.7 | 0.00 | 0.00 | 0.00 | 76 | 1017.2 |
| 20260507220017 | 10 | 90 | 4.8 | 14.5 | 0.00 | 0.00 | 0.00 | 76 | 1017.1 |
| 20260507215017 | 10 | 90 | 3.2 | 11.3 | 0.00 | 0.00 | 0.00 | 76 | 1017.1 |
| 20260507214016 | 10 | 90 | 3.2 | 12.9 | 0.00 | 0.00 | 0.00 | 76 | 1017.1 |
| 20260507213016 | 10 | 90 | 3.2 | 14.5 | 0.00 | 0.00 | 0.00 | 75 | 1017.1 |
| 20260507212016 | 10 | 90 | 3.2 | 11.3 | 0.00 | 0.00 | 0.00 | 75 | 1017.1 |
| 20260507211017 | 10 | 90 | 1.6 | 12.9 | 0.00 | 0.00 | 0.00 | 75 | 1017.1 |
| 20260507210016 | 11 | 90 | 3.2 | 9.7 | 0.00 | 0.00 | 0.00 | 74 | 1017.1 |
| 20260507205056 | 11 | 90 | 3.2 | 11.3 | 0.00 | 0.00 | 0.00 | 74 | 1017.1 |
| 20260507204016 | 11 | 90 | 3.2 | 12.9 | 0.00 | 0.00 | 0.00 | 73 | 1017.0 |
| 20260507203016 | 11 | 90 | 3.2 | 12.9 | 0.00 | 0.00 | 0.00 | 73 | 1017.0 |
| 20260507202016 | 11 | 90 | 4.8 | 14.5 | 0.00 | 0.00 | 0.00 | 73 | 1016.9 |
| 20260507201036 | 11 | 90 | 4.8 | 19.3 | 0.00 | 0.00 | 0.00 | 73 | 1016.5 |
| 20260507200036 | 11 | 90 | 3.2 | 14.5 | 0.00 | 0.00 | 0.00 | 73 | 1016.5 |
| 20260507195016 | 12 | 90 | 4.8 | 16.1 | 0.00 | 0.00 | 0.00 | 72 | 1016.5 |
| 20260507194015 | 12 | 90 | 3.2 | 12.9 | 0.00 | 0.00 | 0.00 | 72 | 1016.4 |
| 20260507193036 | 12 | 90 | 3.2 | 11.3 | 0.00 | 0.00 | 0.00 | 71 | 1016.4 |
| 20260507192036 | 12 | 90 | 1.6 | 12.9 | 0.00 | 0.00 | 0.00 | 71 | 1016.5 |
| 20260507191016 | 12 | 90 | 1.6 | 9.7 | 0.00 | 0.00 | 0.00 | 71 | 1016.5 |
| 20260507190037 | 12 | 90 | 3.2 | 14.5 | 0.00 | 0.00 | 0.00 | 71 | 1016.6 |
| 20260507185017 | 12 | 90 | 3.2 | 11.3 | 0.00 | 0.00 | 0.00 | 70 | 1016.8 |
| 20260507184015 | 12 | 90 | 3.2 | 12.9 | 0.00 | 0.00 | 0.00 | 70 | 1016.7 |
| 20260507183016 | 12 | 90 | 4.8 | 14.5 | 0.00 | 0.00 | 0.00 | 69 | 1016.7 |
| 20260507182017 | 12 | 90 | 3.2 | 12.9 | 0.00 | 0.00 | 0.00 | 69 | 1016.6 |
| 20260507181035 | 12 | 90 | 4.8 | 14.5 | 0.00 | 0.00 | 0.00 | 68 | 1016.4 |
| 20260507180037 | 12 | 90 | 3.2 | 12.9 | 0.00 | 0.00 | 0.00 | 68 | 1016.5 |
| 20260507175016 | 13 | 90 | 4.8 | 17.7 | 0.00 | 0.00 | 0.00 | 67 | 1016.5 |
| 20260507174016 | 13 | 90 | 4.8 | 14.5 | 0.00 | 0.00 | 0.00 | 66 | 1016.7 |
| 20260507173016 | 13 | 90 | 4.8 | 12.9 | 0.00 | 0.00 | 0.00 | 64 | 1016.6 |
| 20260507172037 | 13 | 90 | 4.8 | 12.9 | 0.00 | 0.00 | 0.00 | 62 | 1016.5 |
| 20260507171017 | 13 | 90 | 6.4 | 19.3 | 0.00 | 0.00 | 0.00 | 61 | 1016.7 |
| 20260507170035 | 13 | 90 | 6.4 | 17.7 | 0.00 | 0.00 | 0.00 | 60 | 1016.6 |
| 20260507165015 | 13 | 90 | 4.8 | 16.1 | 0.00 | 0.00 | 0.00 | 59 | 1016.7 |
| 20260507164015 | 13 | 90 | 6.4 | 17.7 | 0.00 | 0.00 | 0.00 | 58 | 1016.7 |
| 20260507163017 | 14 | 113 | 4.8 | 19.3 | 0.00 | 0.00 | 0.00 | 55 | 1016.6 |
| 20260507162017 | 14 | 90 | 4.8 | 16.1 | 0.00 | 0.00 | 0.00 | 58 | 1016.7 |
| 20260507161017 | 14 | 90 | 4.8 | 16.1 | 0.00 | 0.00 | 0.00 | 58 | 1016.8 |
| 20260507160015 | 14 | 90 | 6.4 | 17.7 | 0.00 | 0.00 | 0.00 | 62 | 1016.8 |
| 20260507155015 | 14 | 90 | 6.4 | 22.5 | 0.00 | 0.00 | 0.00 | 61 | 1016.8 |
| 20260507154019 | 14 | 113 | 9.7 | 27.4 | 0.00 | 0.00 | 0.00 | 56 | 1016.7 |
| 20260507153017 | 13 | 113 | 4.8 | 27.4 | 0.00 | 0.00 | 0.00 | 58 | 1016.7 |
| 20260507152019 | 12 | 113 | 3.2 | 11.3 | 0.00 | 0.00 | 0.00 | 66 | 1016.7 |
| 20260507151017 | 11 | 0.0 | 6.4 | 0.00 | 0.00 | 0.00 | 75 | 1016.9 | |
| 20260507150017 | 11 | 90 | 1.6 | 8.0 | 0.00 | 0.00 | 0.00 | 76 | 1017.0 |
| 20260507145015 | 11 | 90 | 3.2 | 11.3 | 0.00 | 0.00 | 0.00 | 76 | 1017.1 |
| 20260507144019 | 11 | 90 | 3.2 | 8.0 | 0.00 | 0.00 | 0.00 | 76 | 1017.1 |
| 20260507143017 | 11 | 90 | 3.2 | 11.3 | 0.00 | 0.00 | 0.00 | 76 | 1017.1 |
| 20260507142018 | 11 | 90 | 4.8 | 17.7 | 0.00 | 0.00 | 0.00 | 76 | 1017.2 |
| 20260507141037 | 12 | 90 | 3.2 | 12.9 | 0.00 | 0.00 | 0.00 | 75 | 1017.3 |
| 20260507140017 | 13 | 113 | 4.8 | 19.3 | 0.00 | 0.00 | 0.00 | 68 | 1017.3 |
| 20260507135018 | 13 | 90 | 3.2 | 14.5 | 0.00 | 0.00 | 0.00 | 69 | 1017.2 |
| 20260507134018 | 13 | 90 | 3.2 | 16.1 | 0.00 | 0.00 | 0.00 | 69 | 1017.2 |
| 20260507133017 | 13 | 90 | 3.2 | 14.5 | 0.00 | 0.00 | 0.00 | 69 | 1017.3 |
| 20260507132037 | 13 | 90 | 6.4 | 17.7 | 0.00 | 0.00 | 0.00 | 69 | 1017.4 |
| 20260507131018 | 13 | 90 | 4.8 | 14.5 | 0.00 | 0.00 | 0.00 | 69 | 1017.5 |
| 20260507130017 | 13 | 90 | 6.4 | 22.5 | 0.00 | 0.00 | 0.00 | 69 | 1017.5 |
| 20260507125057 | 12 | 90 | 6.4 | 16.1 | 0.00 | 0.00 | 0.00 | 70 | 1017.3 |
| 20260507124039 | 12 | 90 | 6.4 | 17.7 | 0.00 | 0.00 | 0.00 | 71 | 1017.5 |
| 20260507123019 | 12 | 90 | 8.0 | 24.1 | 0.00 | 0.00 | 0.00 | 71 | 1017.5 |
| 20260507122017 | 12 | 90 | 6.4 | 19.3 | 0.00 | 0.00 | 0.00 | 71 | 1017.5 |
| 20260507121017 | 12 | 90 | 8.0 | 25.7 | 0.00 | 0.00 | 0.00 | 71 | 1017.4 |
| 20260507120017 | 12 | 90 | 8.0 | 24.1 | 0.00 | 0.00 | 0.00 | 71 | 1017.3 |
| 20260507115037 | 12 | 90 | 6.4 | 20.9 | 0.00 | 0.00 | 0.00 | 71 | 1017.4 |
| 20260507114119 | 12 | 113 | 8.0 | 25.7 | 0.00 | 0.00 | 0.00 | 71 | 1017.5 |
| 20260507113037 | 12 | 90 | 8.0 | 24.1 | 0.00 | 0.00 | 0.00 | 72 | 1017.5 |
| 20260507112017 | 12 | 90 | 6.4 | 20.9 | 0.00 | 0.00 | 0.00 | 72 | 1017.6 |
| 20260507111018 | 11 | 90 | 6.4 | 25.7 | 0.00 | 0.00 | 0.00 | 74 | 1017.5 |
| 20260507110018 | 11 | 90 | 6.4 | 20.9 | 0.00 | 0.00 | 0.00 | 74 | 1017.7 |